Miscellaneous Local Product
Issued by NWS North Platte, NE

Home | Current Version | Previous Version | Graphics & Text | Print | Product List | Glossary On
Versions: 1 2 3 4 5 6 7 8 9 10 11 12 13 14 15 16 17 18 19 20 21 22 23 24 25 26 27 28 29 30 31 32 33 34 35 36 37 38 39 40 41 42 43 44 45 46 47 48 49 50
000
AXUS43 KLBF 211110
MISLBF


WESTERN AND NORTH CENTRAL NEBRASKA HOURLY WEATHER ROUNDUP
NATIONAL WEATHER SERVICE NORTH PLATTE NE
600 AM CDT TUE OCT 21 2014

***STATIONS NOT REPORTING VARIABLES SUCH AS SKY/WEATHER OR
PRESSURE ARE PROVIDED BY THE NEBRASKA DEPARTMENT OF
ROADS...RAWS...AND APRS NETWORKS...AND ARE NOT UNDER
NATIONAL WEATHER SERVICE QUALITY CONTROL***

...OBSERVATIONS IN AND NEAR THE EASTERN PANHANDLE OF NEBRASKA...

CITY           SKY/WX    TMP DP  RH WIND       PRES   REMARKS
PINE RIDGE     CLEAR     58  42  55 SW17      29.91S
CHADRON        CLEAR     58  42  55 SW5       29.90S
ALLIANCE         N/A     47  41  80 S7        29.97S
SIDNEY         CLEAR     46  42  86 S6        30.01S
WHITECLAY        N/A     55  40  56 SE14        N/A
RUSHVILLE        N/A     42  39  87 S13         N/A
CRESCENT LAKE    N/A     51  43  73 S8          N/A
LISCO            N/A     63  45  51 S5          N/A
BIG SPRINGS      N/A     54  44  67 S10         N/A
LEWELLEN         N/A     52  42  69 CALM        N/A
$$

...OBSERVATIONS IN NORTH CENTRAL NEBRASKA...

CITY           SKY/WX    TMP DP  RH WIND       PRES   REMARKS
VALENTINE      CLEAR     50  39  66 S12       29.96S
THEDFORD       CLEAR     52  40  64 S5        30.02S
AINSWORTH      CLEAR     47  39  72 S6        29.99S
O`NEILL        CLEAR     47  42  81 SE7       30.03R
ORD            CLEAR     41  37  86 CALM      30.04S
BROKEN BOW     CLEAR     40  36  86 CALM      30.04S
BROWNLEE         N/A     53  40  61 S13         N/A
SPRINGVIEW       N/A     47  39  73 CALM        N/A
BREWSTER         N/A     43  38  84 CALM        N/A
ROSE             N/A     49  43  80 E7          N/A
NEWPORT          N/A     51  42  71 S9          N/A
SARGENT          N/A     42  39  90 CALM        N/A
COMSTOCK         N/A     49  43  78 S6          N/A
CHAMBERS         N/A     49  41  75 S3          N/A
$$

...OBSERVATIONS IN SOUTHWEST NEBRASKA AND FAR NORTHEAST COLORADO...

CITY           SKY/WX    TMP DP  RH WIND       PRES   REMARKS
WRAY           FAIR      53  48  83 S7        30.03S
HOLYOKE        FAIR      45  39  81 S6        30.03S
IMPERIAL       CLEAR     53  42  66 S10       30.03S
OGALLALA       CLEAR     44  38  79 CALM      30.02S
NORTH PLATTE   CLEAR     50  38  63 CALM      30.04S
MCCOOK         CLEAR     48  39  71 SE3       30.06S
LEXINGTON      CLEAR     41  38  88 E3        30.06S
PAXTON           N/A     51  41  69 CALM        N/A
SUTHERLAND       N/A     38  35  88 CALM        N/A
BRADY            N/A     49  40  71 CALM        N/A
GOTHENBURG       N/A     57  39  51 S7          N/A
CALLAWAY         N/A     47  41  80 S9          N/A
$$

...SOME WEATHER OBSERVATIONS FROM AROUND THE REGION...

CITY           SKY/WX    TMP DP  RH WIND       PRES   REMARKS
DENVER         CLEAR     51  37  58 W13       30.03R
LARAMIE        CLEAR     37  31  78 S12       30.12S WCI  29
CHEYENNE       CLEAR     46  34  62 W12       30.05S
SCOTTSBLUFF    CLEAR     47  41  80 SE7       29.96S
RAPID CITY     CLEAR     49  39  68 SE3       29.84F
PIERRE         CLEAR     52  40  63 SE13      29.87F
WINNER         FAIR      60  39  45 S22       29.92S
SIOUX FALLS    CLEAR     38  35  89 CALM      30.09R
OMAHA          CLEAR     42  40  92 CALM      30.11R
GRAND ISLAND   CLEAR     47  41  80 S7        30.07S
KANSAS CITY    CLEAR     49  45  86 CALM      30.11R
WICHITA        PTCLDY    52  48  86 E5        30.08R
HAYS           CLEAR     45  36  70 CALM      30.08S
LIBERAL        PTCLDY    54  48  82 SE5       30.08S
GOODLAND       CLEAR     48  47  96 S9        30.07F
$$



USA.gov is the U.S. government's official web portal to all federal, state and local government web resources and services.